Flag for U.S.A. Weather past 2 weeks in Orlando, Florida, U.S.A.

Now
88 °F

Scattered clouds.


Feels Like: 102 °F
Forecast: 75 / 89 °F
Wind: 6 mph from South

Location: Orlando Executive Airport

Current Time: Aug 29, 2015 at 1:55:10 PM

Latest Report: Aug 29, 2015 at 12:53 PM


Visibility: 10 mi

Pressure: 30.09 "Hg

Humidity: 73%

Dew point: 78 °F

Location of OrlandoLocation

Historic Weather in Orlando — Graph

°F

Orlando temperature yesterday

Maximum temperature yesterday: 91 °F (at 2:53 PM)
Minimum temperature yesterday: 74 °F (at 12:53 AM)
Average temperature yesterday: 79 °F

Past Weeks' High & Low Weather Summary

 TemperatureHumidityPressure
High96 °F (Aug 25, 5:53 PM)100% (Aug 14, 11:53 PM)30.13 "Hg (Aug 14, 11:53 PM)
Low73 °F (Aug 14, 7:53 PM)43% (Aug 25, 5:53 PM)29.87 "Hg (Aug 25, 6:53 PM)
Average82 °F84%30.01 "Hg
* Reported Aug 14 12:53 PM — Aug 29 12:00 Noon, Orlando, Weather by CustomWeather, © 2015

Note: Actual official high and low records may vary slightly from our data, if they occured in-between our weather recording intervals... More about our weather records

Advertising

Orlando weather history for previous 24 hours

 ConditionsComfort  
Time TempWeatherWind HumidityBarometerVisibility
12:00 PM
Sat, Aug 29
85 °FPartly sunny.5 mph80%30.10 "Hg10 mi
10:53 AM85 °FPartly sunny.6 mph83%30.10 "Hg10 mi
9:53 AM83 °FSunny.5 mph88%30.09 "Hg10 mi
8:53 AM80 °FSunny.No wind94%30.09 "Hg10 mi
7:53 AM77 °FClear.No wind100%30.09 "Hg10 mi
6:53 AM75 °FPassing clouds.No wind100%30.07 "Hg10 mi
5:53 AM75 °FPassing clouds.No wind100%30.06 "Hg7 mi
5:01 AM76 °FPassing clouds.5 mph100%30.05 "Hg10 mi
3:02 AM77 °FFog.3 mph100%30.05 "Hg5 mi
2:53 AM77 °FFog.3 mph100%30.05 "Hg3 mi
1:53 AM78 °FPartly cloudy.No wind96%30.06 "Hg10 mi
12:53 AM77 °FPassing clouds.3 mph100%30.09 "Hg10 mi
11:53 PM
Fri, Aug 28
77 °FPassing clouds.No wind100%30.10 "Hg10 mi
10:53 PM77 °FClear.No wind100%30.09 "Hg10 mi
9:53 PM77 °FClear.3 mph96%30.09 "Hg10 mi
8:53 PM77 °FPartly cloudy.No wind96%30.07 "Hg10 mi
7:53 PM78 °FScattered clouds.6 mph96%30.06 "Hg10 mi
6:53 PM78 °FLight rain. Fog.5 mph100%30.03 "Hg6 mi
5:53 PM77 °FThundershowers. Partly sunny.9 mph90%30.03 "Hg10 mi
4:53 PM85 °FThunderstorms. Passing clouds.12 mph75%30.01 "Hg10 mi
3:53 PM85 °FBroken clouds.13 mph63%30.00 "Hg10 mi
2:53 PM91 °FScattered clouds.8 mph60%30.02 "Hg10 mi
1:53 PM88 °FScattered clouds.6 mph63%30.03 "Hg10 mi
Weather by CustomWeather, © 2015

See weather overviewHow to use our weather pages